�������l�o���
Date,Time,MP-1(��Sv/h),MP-2(��Sv/h),MP-3(��Sv/h),MP-4(��Sv/h),MP-5(��Sv/h),MP-6(��Sv/h),MP-7(��Sv/h),����,����(m/s),���J
2016/12/08,00:00,0.388,0.234,0.403,0.375,0.345,0.195,0.167,�k,4.4,��
2016/12/08,00:10,0.388,0.235,0.404,0.375,0.347,0.194,0.167,�k,3.8,��
2016/12/08,00:20,0.388,0.235,0.403,0.375,0.346,0.193,0.168,�k,5.4,��
2016/12/08,00:30,0.388,0.235,0.404,0.375,0.344,0.194,0.167,�k,6.5,��
2016/12/08,00:40,0.388,0.235,0.406,0.375,0.347,0.193,0.167,�k,6.1,��
2016/12/08,00:50,0.388,0.234,0.402,0.374,0.347,0.194,0.167,�k,6.8,��
2016/12/08,01:00,0.386,0.235,0.403,0.376,0.347,0.194,0.167,�k�k��,8.3,��
2016/12/08,01:10,0.388,0.235,0.407,0.374,0.347,0.194,0.167,�k,7.9,��
2016/12/08,01:20,0.389,0.234,0.405,0.375,0.346,0.194,0.168,�k,7.5,��
2016/12/08,01:30,0.389,0.235,0.404,0.374,0.347,0.194,0.167,�k,8.1,��
2016/12/08,01:40,0.388,0.236,0.405,0.374,0.346,0.196,0.168,�k,8.1,��
2016/12/08,01:50,0.389,0.234,0.405,0.373,0.346,0.194,0.167,�k,8.6,��
2016/12/08,02:00,0.390,0.235,0.403,0.375,0.345,0.194,0.167,�k,7.5,��
2016/12/08,02:10,0.388,0.236,0.404,0.376,0.346,0.194,0.167,�k,7.3,��
2016/12/08,02:20,0.387,0.235,0.404,0.374,0.346,0.194,0.167,�k,5.6,��
2016/12/08,02:30,0.388,0.234,0.403,0.375,0.347,0.193,0.167,�k,5.6,��
2016/12/08,02:40,0.388,0.234,0.403,0.375,0.345,0.193,0.167,�k,5.3,��
2016/12/08,02:50,0.387,0.235,0.405,0.374,0.344,0.194,0.167,�k,4.9,��
2016/12/08,03:00,0.387,0.235,0.405,0.374,0.345,0.193,0.168,�k,4.0,��
2016/12/08,03:10,0.388,0.234,0.405,0.374,0.346,0.195,0.167,�k�k��,2.8,��
2016/12/08,03:20,0.387,0.234,0.405,0.375,0.346,0.195,0.167,�k,3.1,��
2016/12/08,03:30,0.387,0.234,0.405,0.374,0.346,0.194,0.166,�k��,2.9,��
2016/12/08,03:40,0.389,0.234,0.404,0.374,0.345,0.195,0.167,���k��,3.4,��
2016/12/08,03:50,0.388,0.235,0.404,0.374,0.346,0.192,0.168,���k��,3.6,��
2016/12/08,04:00,0.389,0.235,0.405,0.376,0.346,0.194,0.167,��,2.7,��
2016/12/08,04:10,0.388,0.234,0.406,0.375,0.345,0.193,0.167,�k��,1.5,��
2016/12/08,04:20,0.390,0.234,0.403,0.372,0.346,0.194,0.167,���k��,2.5,��
2016/12/08,04:30,0.388,0.235,0.404,0.375,0.346,0.194,0.168,���k��,1.4,��
2016/12/08,04:40,0.387,0.234,0.403,0.375,0.345,0.195,0.167,�k��,2.8,��
2016/12/08,04:50,0.386,0.234,0.405,0.374,0.344,0.194,0.167,�k��,5.6,��
2016/12/08,05:00,0.388,0.233,0.405,0.373,0.344,0.194,0.167,��,6.3,��
2016/12/08,05:10,0.387,0.234,0.405,0.374,0.346,0.194,0.167,��,5.9,��
2016/12/08,05:20,0.385,0.234,0.404,0.374,0.346,0.195,0.167,���k��,5.2,��
2016/12/08,05:30,0.388,0.234,0.407,0.374,0.345,0.194,0.166,���k��,5.3,��
2016/12/08,05:40,0.387,0.235,0.404,0.373,0.344,0.194,0.167,�k��,4.0,��
2016/12/08,05:50,0.388,0.234,0.403,0.375,0.345,0.195,0.166,�k��,4.5,��
2016/12/08,06:00,0.386,0.234,0.404,0.373,0.345,0.193,0.166,���k��,5.5,��
2016/12/08,06:10,0.388,0.234,0.405,0.373,0.344,0.194,0.167,���k��,5.7,��
2016/12/08,06:20,0.387,0.234,0.404,0.374,0.344,0.194,0.167,���k��,6.3,��
2016/12/08,06:30,0.388,0.235,0.403,0.373,0.344,0.194,0.167,���k��,6.5,��
2016/12/08,06:40,0.387,0.234,0.406,0.373,0.343,0.194,0.167,���k��,5.7,��
2016/12/08,06:50,0.387,0.235,0.403,0.373,0.344,0.192,0.166,�k��,5.0,��
2016/12/08,07:00,0.389,0.234,0.402,0.374,0.346,0.193,0.167,�k��,3.0,��
2016/12/08,07:10,0.386,0.234,0.403,0.374,0.347,0.192,0.167,���k��,2.9,��
2016/12/08,07:20,0.387,0.234,0.404,0.373,0.346,0.194,0.167,�k��,4.2,��
2016/12/08,07:30,0.389,0.234,0.403,0.372,0.346,0.191,0.167,���k��,4.9,��
2016/12/08,07:40,0.387,0.234,0.404,0.374,0.345,0.194,0.167,�k�k��,4.5,��
2016/12/08,07:50,0.386,0.234,0.405,0.373,0.345,0.193,0.166,�k�k��,4.9,��
2016/12/08,08:00,0.388,0.234,0.403,0.371,0.346,0.193,0.166,�k��,5.3,��
2016/12/08,08:10,0.388,0.233,0.401,0.374,0.345,0.193,0.166,�k�k��,6.6,��
2016/12/08,08:20,0.387,0.235,0.403,0.371,0.345,0.194,0.166,�k�k��,7.8,��
2016/12/08,08:30,0.388,0.234,0.404,0.372,0.344,0.193,0.166,�k,6.4,��
2016/12/08,08:40,0.388,0.236,0.402,0.374,0.346,0.193,0.167,�k,5.6,��
2016/12/08,08:50,0.387,0.233,0.404,0.372,0.345,0.194,0.166,�k,7.8,��
2016/12/08,09:00,0.386,0.234,0.406,0.374,0.346,0.192,0.167,�k,7.5,��
2016/12/08,09:10,0.387,0.235,0.404,0.375,0.346,0.194,0.166,�k,4.8,��
2016/12/08,09:20,0.388,0.234,0.402,0.370,0.346,0.194,0.167,�k�k��,3.8,��
2016/12/08,09:30,0.386,0.233,0.404,0.374,0.345,0.192,0.167,�k�k��,3.9,��
2016/12/08,09:40,0.385,0.235,0.403,0.372,0.347,0.193,0.165,�k,3.7,��
2016/12/08,09:50,0.386,0.234,0.403,0.374,0.346,0.195,0.167,�k,3.3,��
2016/12/08,10:00,0.387,0.234,0.405,0.371,0.345,0.194,0.166,�k�k��,5.1,��
2016/12/08,10:10,0.386,0.234,0.403,0.373,0.343,0.194,0.166,�k�k��,7.2,��
2016/12/08,10:20,0.386,0.234,0.402,0.372,0.342,0.193,0.167,�k�k��,7.7,��
2016/12/08,10:30,0.384,0.235,0.405,0.374,0.347,0.195,0.166,�k��,7.6,��
2016/12/08,10:40,0.385,0.234,0.402,0.374,0.346,0.193,0.167,�k��,6.8,��
2016/12/08,10:50,0.387,0.235,0.403,0.373,0.346,0.193,0.166,�k�k��,6.7,��
2016/12/08,11:00,0.386,0.235,0.406,0.375,0.347,0.194,0.167,�k�k��,5.7,��
2016/12/08,11:10,0.388,0.235,0.404,0.373,0.345,0.193,0.167,�k�k��,5.9,��
2016/12/08,11:20,0.387,0.234,0.404,0.376,0.345,0.192,0.167,�k�k��,6.4,��
2016/12/08,11:30,0.387,0.235,0.404,0.372,0.345,0.194,0.167,�k,5.7,��
2016/12/08,11:40,0.387,0.235,0.403,0.373,0.345,0.194,0.167,�k,4.2,��
2016/12/08,11:50,0.387,0.235,0.405,0.374,0.347,0.194,0.166,�k,2.5,��
2016/12/08,12:00,0.389,0.235,0.402,0.373,0.347,0.194,0.167,�k�k��,3.6,��
2016/12/08,12:10,0.388,0.234,0.403,0.376,0.347,0.193,0.167,�k�k��,6.9,��
2016/12/08,12:20,0.385,0.234,0.402,0.372,0.345,0.192,0.166,�k,5.2,��
2016/12/08,12:30,0.387,0.235,0.402,0.375,0.344,0.195,0.167,�k�k��,3.3,��
2016/12/08,12:40,0.386,0.235,0.403,0.373,0.344,0.193,0.166,�k�k��,2.3,��
2016/12/08,12:50,0.388,0.235,0.401,0.373,0.345,0.195,0.166,�k,3.6,��
2016/12/08,13:00,0.385,0.235,0.403,0.372,0.344,0.193,0.166,�k�k��,4.2,��
2016/12/08,13:10,0.388,0.234,0.403,0.372,0.345,0.194,0.167,�k�k��,5.8,��
2016/12/08,13:20,0.387,0.234,0.404,0.371,0.344,0.194,0.166,�k��,5.3,��
2016/12/08,13:30,0.386,0.234,0.401,0.372,0.347,0.194,0.167,�k�k��,5.2,��
2016/12/08,13:40,0.388,0.235,0.403,0.372,0.345,0.193,0.166,�k��,4.5,��
2016/12/08,13:50,0.387,0.234,0.401,0.376,0.345,0.192,0.165,�k��,3.9,��
2016/12/08,14:00,0.387,0.235,0.407,0.371,0.348,0.194,0.167,�k��,4.2,��
2016/12/08,14:10,0.387,0.235,0.405,0.375,0.344,0.193,0.167,�k��,4.9,��
2016/12/08,14:20,0.387,0.234,0.403,0.374,0.345,0.194,0.167,�k��,4.1,��
2016/12/08,14:30,0.390,0.235,0.406,0.375,0.348,0.193,0.167,�k��,3.3,��
2016/12/08,14:40,0.388,0.234,0.403,0.376,0.345,0.193,0.167,���k��,4.2,��
2016/12/08,14:50,0.385,0.234,0.404,0.374,0.348,0.194,0.167,�k��,2.8,��
2016/12/08,15:00,0.387,0.236,0.405,0.375,0.346,0.192,0.169,�k�k��,2.9,��
2016/12/08,15:10,0.387,0.233,0.403,0.374,0.345,0.194,0.168,�k��,2.6,��
2016/12/08,15:20,0.387,0.234,0.406,0.375,0.348,0.193,0.166,���k��,1.8,��
2016/12/08,15:30,0.386,0.235,0.402,0.375,0.345,0.193,0.166,��,0.6,��
2016/12/08,15:40,0.388,0.235,0.404,0.373,0.343,0.192,0.166,�k�k��,1.2,��
2016/12/08,15:50,0.386,0.234,0.404,0.376,0.347,0.195,0.167,-,CALM,��
2016/12/08,16:00,0.387,0.234,0.402,0.375,0.346,0.192,0.166,-,CALM,��
2016/12/08,16:10,0.388,0.235,0.404,0.373,0.345,0.193,0.168,-,CALM,��
2016/12/08,16:20,0.387,0.234,0.405,0.375,0.347,0.194,0.166,-,CALM,��
2016/12/08,16:30,0.387,0.233,0.404,0.373,0.345,0.194,0.167,��,0.9,��
2016/12/08,16:40,0.386,0.235,0.405,0.375,0.346,0.193,0.166,���쐼,2.3,��
2016/12/08,16:50,0.387,0.234,0.406,0.376,0.345,0.194,0.167,���쐼,2.2,��
2016/12/08,17:00,0.387,0.234,0.404,0.375,0.346,0.193,0.167,���쐼,2.2,��
2016/12/08,17:10,0.390,0.234,0.405,0.374,0.345,0.193,0.167,���쐼,2.0,��
2016/12/08,17:20,0.388,0.234,0.406,0.376,0.345,0.195,0.165,��,0.5,��
2016/12/08,17:30,0.389,0.234,0.404,0.375,0.346,0.193,0.168,�k�k��,0.5,��
2016/12/08,17:40,0.387,0.234,0.403,0.374,0.344,0.193,0.167,�k��,3.1,��
2016/12/08,17:50,0.389,0.234,0.404,0.375,0.345,0.193,0.167,�k�k��,4.5,��
2016/12/08,18:00,0.388,0.234,0.406,0.376,0.345,0.193,0.166,�k�k��,4.7,��
2016/12/08,18:10,0.387,0.234,0.404,0.375,0.345,0.194,0.167,�k��,5.0,��
2016/12/08,18:20,0.388,0.235,0.406,0.374,0.344,0.194,0.167,�k��,4.5,��
2016/12/08,18:30,0.388,0.234,0.405,0.375,0.345,0.194,0.166,���k��,3.6,��
2016/12/08,18:40,0.388,0.235,0.406,0.377,0.345,0.194,0.167,���k��,2.6,��
2016/12/08,18:50,0.387,0.234,0.405,0.375,0.346,0.194,0.167,�k�k��,3.4,��
2016/12/08,19:00,0.389,0.235,0.407,0.375,0.345,0.194,0.167,�k�k��,4.6,��
2016/12/08,19:10,0.388,0.235,0.404,0.377,0.347,0.194,0.166,�k�k��,5.0,��
2016/12/08,19:20,0.388,0.235,0.405,0.375,0.345,0.194,0.167,�k�k��,3.4,��
2016/12/08,19:30,0.387,0.236,0.404,0.374,0.345,0.193,0.168,�k��,3.8,��
2016/12/08,19:40,0.389,0.234,0.405,0.376,0.345,0.194,0.166,�k��,3.6,��
2016/12/08,19:50,0.387,0.235,0.404,0.375,0.346,0.195,0.167,�k�k��,3.5,��
2016/12/08,20:00,0.388,0.236,0.404,0.375,0.345,0.194,0.167,�k,2.2,��
2016/12/08,20:10,0.389,0.235,0.403,0.374,0.344,0.193,0.168,�k�k��,2.2,��
2016/12/08,20:20,0.389,0.235,0.406,0.375,0.343,0.194,0.166,�k�k��,1.4,��
2016/12/08,20:30,0.388,0.234,0.405,0.375,0.345,0.193,0.167,�k�k��,1.0,��
2016/12/08,20:40,0.387,0.235,0.406,0.374,0.346,0.194,0.167,�k,0.8,��
2016/12/08,20:50,0.386,0.234,0.405,0.375,0.345,0.194,0.167,�k,0.7,��
2016/12/08,21:00,0.389,0.234,0.406,0.375,0.345,0.193,0.167,-,CALM,��
2016/12/08,21:10,0.388,0.235,0.404,0.377,0.346,0.194,0.167,-,CALM,��
2016/12/08,21:20,0.388,0.234,0.405,0.375,0.346,0.194,0.167,-,CALM,��
2016/12/08,21:30,0.388,0.234,0.405,0.374,0.345,0.194,0.166,�k,0.6,��
2016/12/08,21:40,0.387,0.234,0.406,0.374,0.344,0.193,0.167,-,CALM,��
2016/12/08,21:50,0.389,0.234,0.406,0.376,0.346,0.193,0.167,-,CALM,��
2016/12/08,22:00,0.388,0.235,0.404,0.375,0.345,0.194,0.167,-,CALM,��
2016/12/08,22:10,0.387,0.234,0.404,0.374,0.345,0.194,0.168,�k,0.6,��
2016/12/08,22:20,0.388,0.233,0.405,0.374,0.343,0.193,0.168,�k�k��,0.5,��
2016/12/08,22:30,0.388,0.234,0.404,0.375,0.345,0.194,0.167,-,CALM,��
2016/12/08,22:40,0.387,0.235,0.405,0.375,0.345,0.193,0.167,-,CALM,��
2016/12/08,22:50,0.389,0.234,0.405,0.375,0.345,0.193,0.167,-,CALM,��
2016/12/08,23:00,0.390,0.235,0.406,0.375,0.346,0.193,0.168,�k,0.6,��
2016/12/08,23:10,0.388,0.234,0.405,0.374,0.346,0.195,0.166,�k,1.2,��
2016/12/08,23:20,0.389,0.235,0.404,0.375,0.345,0.195,0.167,�k,0.5,��
2016/12/08,23:30,0.387,0.234,0.404,0.374,0.344,0.193,0.167,-,CALM,��
2016/12/08,23:40,0.387,0.233,0.406,0.376,0.347,0.193,0.168,-,CALM,��
2016/12/08,23:50,0.388,0.234,0.403,0.375,0.346,0.194,0.167,-,CALM,��
